Home   Weather   Hammerfest   Past weeks

Flag for Norway Past Weather in Hammerfest, Norway — Yesterday and Last 2 Weeks

Now
27 °F

Snow flurries. Broken clouds.


Feels Like: 17 °F
Forecast: 26 / 32 °F
Wind: 9 mph from West

Location: Hammerfest

Current Time: Dec 11, 2016 at 1:00:07 pm

Latest Report: Dec 11, 2016 at 12:20 pm


Visibility: N/A

Pressure: 29.71 "Hg

Humidity: 86%

Dew Point: 23 °F

Location of HammerfestLocation

Past Weather in Hammerfest — Graph

°F

Hammerfest Temperature Yesterday

Maximum temperature yesterday: 30 °F (at 12:50 am)
Minimum temperature yesterday: 25 °F (at 6:50 pm)
Average temperature yesterday: 28 °F

High & Low Weather Summary for the Past Weeks

 TemperatureHumidityPressure
High39 °F (Nov 29, 7:50 pm)100% (Nov 27, 2:20 am)29.98 "Hg (Nov 27, 2:20 am)
Low16 °F (Dec 3, 2:50 am)36% (Dec 3, 11:50 pm)28.88 "Hg (Dec 8, 6:50 pm)
Average27 °F79%29.55 "Hg
* Reported Nov 26 11:50 am — Dec 11 11:50 am, Hammerfest, Weather by CustomWeather, © 2016

Note: Actual official high and low records may vary slightly from our data, if they occured in-between our weather recording intervals... More about our weather records

Advertising

Hammerfest Weather History for the Previous 24 Hours

Scroll right to see more
 ConditionsComfort  
Time TempWeatherWind HumidityBarometerVisibility
11:50 am
Sun, Dec 11
25 °FLight mixture of precip. Broken clouds.2 mph86%29.74 "HgN/A
11:20 am23 °FPartly sunny.6 mph86%29.74 "HgN/A
10:50 am23 °FLight mixture of precip. Broken clouds.6 mph93%29.74 "HgN/A
9:50 am23 °FLight snow. Broken clouds.1 mph100%29.74 "Hg3 mi
8:50 am21 °FSnow. Ice fog.3 mph93%29.74 "Hg1 mi
7:50 am21 °FLight snow. Broken clouds.2 mph93%29.74 "Hg4 mi
7:20 am23 °FScattered clouds.2 mph86%29.74 "HgN/A
6:50 am21 °FLight snow. Scattered clouds.8 mph86%29.74 "Hg2 mi
6:20 am23 °FLight snow. Scattered clouds.5 mph93%29.71 "Hg6 mi
5:50 am25 °FLight snow. Partly cloudy.16 mph86%29.74 "Hg1 mi
5:20 am25 °FCold.9 mph74%29.71 "HgN/A
4:50 am25 °FPartly cloudy.9 mph86%29.74 "HgN/A
4:20 am25 °FLight snow. Passing clouds.14 mph74%29.74 "HgN/A
3:50 am23 °FPassing clouds.9 mph86%29.74 "HgN/A
3:20 am25 °FPassing clouds.9 mph74%29.74 "HgN/A
2:50 am27 °FPassing clouds.12 mph74%29.71 "HgN/A
2:20 am25 °FPassing clouds.3 mph74%29.71 "HgN/A
1:50 am25 °FSnow flurries. Mostly cloudy.6 mph80%29.71 "HgN/A
1:20 am25 °FPartly cloudy.12 mph80%29.71 "HgN/A
12:50 am27 °FLight snow. Partly sunny.13 mph74%29.71 "HgN/A
12:20 am25 °FPassing clouds.12 mph86%29.71 "HgN/A
11:50 pm
Sat, Dec 10
25 °FLight snow. Ice fog.20 mph93%29.71 "Hg2 mi
11:20 pm25 °FPartly cloudy.9 mph86%29.71 "HgN/A
10:50 pm25 °FLight snow. Partly cloudy.16 mph93%29.71 "Hg1 mi
10:20 pm25 °FSnow. Mostly cloudy.16 mph93%29.71 "Hg0 mi
9:50 pm25 °FLight freezing rain. Passing clouds.16 mph93%29.71 "Hg5 mi
9:20 pm25 °FLight snow. Mostly cloudy.23 mph93%29.68 "Hg1 mi
8:50 pm27 °FLight snow. Passing clouds.17 mph86%29.68 "Hg1 mi
8:20 pm27 °FPartly cloudy.16 mph80%29.71 "HgN/A
7:50 pm27 °FLight freezing rain. Passing clouds.16 mph80%29.71 "HgN/A
7:20 pm27 °FLight snow. Partly cloudy.15 mph74%29.71 "Hg6 mi
6:50 pm25 °FIce fog.16 mph80%29.71 "HgN/A
6:20 pm28 °FBroken clouds.16 mph51%29.68 "HgN/A
5:50 pm28 °FScattered clouds.15 mph55%29.68 "HgN/A
5:20 pm28 °FPassing clouds.15 mph59%29.71 "HgN/A
4:50 pm27 °FSnow flurries. Broken clouds.20 mph74%29.71 "HgN/A
4:20 pm28 °FLight freezing rain. Broken clouds.20 mph69%29.71 "HgN/A
3:50 pm27 °FLight snow. Broken clouds.6 mph86%29.68 "HgN/A
2:50 pm27 °FMixture of precip. Ice fog.12 mph93%29.71 "Hg1 mi
1:50 pm28 °FSnow flurries. Ice fog.15 mph80%29.68 "Hg2 mi
Weather by CustomWeather, © 2016

See weather overviewHow to use our weather pages